DW4070 Weather Reports


time (UTC)temp
F
wind
direction
speed
knots
gust
knots
rain 1hr
in
rain 24hr
in
rain mn
in
humidity
%
barometer
mb
20260508114523 44 339 0.0 0.0 0.00 0.01 0.01 94 1014.0
20260508113030 44 340 0.0 0.0 0.00 0.01 0.01 93 1013.9
20260508111520 43 341 0.0 0.0 0.00 0.01 0.01 93 1013.9
20260508110019 42 340 0.0 0.0 0.00 0.01 0.01 92 1013.8
20260508104521 42 341 0.0 0.0 0.00 0.01 0.01 92 1013.7
20260508103017 42 341 0.0 0.0 0.00 0.01 0.01 91 1013.5
20260508101519 43 341 0.0 0.0 0.00 0.01 0.01 91 1013.5
20260508100016 43 341 0.0 0.0 0.00 0.04 0.01 91 1013.4
20260508094514 44 341 0.0 0.0 0.00 0.04 0.01 91 1013.3
20260508093016 44 341 0.0 0.0 0.00 0.04 0.01 91 1013.2
20260508091519 44 341 0.0 0.0 0.00 0.04 0.01 91 1012.9
20260508090022 44 53 0.0 1.7 0.00 0.12 0.01 91 1012.7
20260508084510 44 61 0.0 0.9 0.00 0.12 0.01 91 1012.9
20260508083009 44 61 0.0 0.0 0.00 0.12 0.01 91 1012.8
20260508081510 44 61 0.0 0.0 0.00 0.12 0.01 90 1012.9
20260508080008 44 61 0.0 0.0 0.01 0.19 0.01 90 1012.7
20260508074508 44 61 0.0 0.0 0.01 0.19 0.01 89 1013.0
20260508073007 44 61 0.0 0.0 0.01 0.19 0.01 88 1013.2
20260508071515 45 61 0.0 1.7 0.01 0.19 0.01 87 1013.3
20260508070005 45 49 0.0 0.9 0.00 0.22 0.00 85 1013.4
20260508064503 46 59 0.0 1.7 0.00 0.22 0.00 80 1013.5
20260508063000 47 24 0.9 3.5 0.00 0.22 0.00 72 1013.4
20260508061558 45 355 0.0 0.0 0.00 0.22 0.00 82 1012.5
20260508060053 44 51 0.0 0.0 0.00 0.22 0.00 89 1011.3
20260508054550 43 51 0.0 0.0 0.00 0.22 0.00 89 1011.1
20260508053049 42 51 0.0 0.0 0.00 0.22 0.00 90 1011.2
20260508051545 41 51 0.0 0.0 0.00 0.22 0.00 90 1011.2
20260508050045 41 51 0.0 0.0 0.00 0.22 0.00 89 1011.1
20260508044543 41 51 0.0 0.0 0.00 0.22 0.00 88 1011.0
20260508043045 42 51 0.0 0.0 0.00 0.22 0.00 87 1011.0
20260508041539 42 51 0.0 0.0 0.00 0.22 0.00 87 1011.0
20260508040036 42 51 0.0 0.0 0.00 0.22 0.00 85 1011.0
20260508034534 43 51 0.0 0.0 0.00 0.22 0.22 84 1011.1
20260508033034 43 51 0.0 0.0 0.00 0.22 0.22 84 1011.0
20260508031532 43 51 0.0 0.0 0.00 0.22 0.22 83 1011.0
20260508030031 44 51 0.0 0.0 0.00 0.22 0.22 81 1011.1
20260508024535 44 51 0.0 0.0 0.00 0.22 0.22 79 1011.0
20260508023028 45 51 0.0 0.0 0.00 0.22 0.22 78 1010.9
20260508021532 46 51 0.0 0.0 0.00 0.22 0.22 76 1010.9
20260508020020 46 51 0.0 0.0 0.00 0.24 0.22 74 1010.8
20260508014518 47 51 0.0 0.0 0.00 0.24 0.22 72 1010.9
20260508013024 48 51 0.0 0.0 0.00 0.24 0.22 68 1010.8
20260508011515 49 51 0.0 0.0 0.00 0.24 0.22 65 1010.6
20260508010015 50 51 0.0 0.0 0.00 0.24 0.22 62 1010.5
20260508004521 51 51 0.0 0.0 0.00 0.24 0.22 58 1010.3
20260508003010 53 51 0.0 0.0 0.00 0.24 0.22 55 1010.0
20260508001517 54 51 0.0 0.0 0.00 0.24 0.22 53 1009.7
20260508000010 55 51 0.0 0.0 0.00 0.24 0.22 51 1009.8
20260507234510 56 51 0.0 0.0 0.00 0.24 0.22 52 1009.6
20260507233010 58 51 0.0 0.0 0.00 0.24 0.22 49 1009.4
20260507231508 59 5 0.0 0.9 0.00 0.24 0.22 43 1009.3
20260507230006 59 14 0.0 1.7 0.00 0.24 0.22 41 1009.1
20260507224505 60 22 0.0 2.6 0.00 0.24 0.22 42 1009.0
20260507223006 60 59 0.0 1.7 0.00 0.24 0.22 39 1009.0
20260507221510 60 59 0.0 3.5 0.00 0.24 0.22 36 1009.1
20260507220004 61 61 0.9 2.6 0.00 0.24 0.22 37 1009.0
20260507214503 61 286 0.0 1.7 0.00 0.24 0.22 45 1008.9
20260507213003 60 45 0.9 2.6 0.00 0.24 0.22 36 1008.8
20260507211502 61 90 0.0 4.3 0.00 0.24 0.22 35 1008.8
20260507210002 61 34 0.0 6.1 0.00 0.24 0.22 35 1008.8
20260507204500 62 86 0.0 4.3 0.00 0.24 0.22 34 1008.7
20260507203103 62 78 0.0 3.5 0.00 0.24 0.22 34 1008.6
20260507201600 62 274 0.9 3.5 0.00 0.24 0.22 34 1008.6
20260507200056 63 274 0.9 2.6 0.00 0.24 0.22 34 1008.7
20260507194628 64 275 1.7 4.3 0.00 0.25 0.22 34 1008.9
20260507193052 64 199 0.9 3.5 0.00 0.25 0.22 41 1009.0
20260507191552 64 27 1.7 3.5 0.00 0.25 0.22 39 1009.3
20260507190049 64 265 0.0 3.5 0.00 0.25 0.22 38 1009.5
20260507184550 64 53 2.6 5.2 0.00 0.26 0.22 36 1009.6
20260507183045 64 268 0.9 3.5 0.00 0.26 0.22 38 1009.9
20260507181544 63 267 0.0 4.3 0.00 0.26 0.22 36 1009.9
20260507180043 63 265 0.9 3.5 0.00 0.26 0.22 38 1010.1
20260507174548 63 284 1.7 3.5 0.00 0.28 0.22 40 1010.2
20260507173041 63 46 0.9 3.5 0.00 0.28 0.22 38 1010.5
20260507171546 62 9 0.9 1.7 0.00 0.28 0.22 43 1010.6
20260507170040 62 118 1.7 6.1 0.00 0.28 0.22 38 1011.0
20260507164535 61 285 0.0 4.3 0.00 0.30 0.22 50 1011.1
20260507163034 61 265 0.0 3.5 0.00 0.30 0.22 47 1011.4
20260507161539 61 265 0.9 2.6 0.00 0.30 0.22 43 1011.4
20260507160030 60 265 0.9 3.5 0.00 0.30 0.22 45 1011.7
20260507154534 59 63 0.9 4.3 0.00 0.30 0.22 43 1011.7
20260507153037 59 309 0.0 2.6 0.00 0.30 0.22 49 1012.0
20260507151525 58 9 0.9 3.5 0.00 0.30 0.22 49 1012.1
20260507150024 58 17 0.0 3.5 0.00 0.30 0.22 61 1012.1
20260507144518 57 284 0.9 2.6 0.00 0.30 0.22 60 1012.0
20260507143023 55 9 0.9 2.6 0.00 0.30 0.22 65 1012.0
20260507141516 55 53 0.9 3.5 0.00 0.30 0.22 65 1012.1
20260507140015 53 23 0.9 4.3 0.00 0.30 0.22 69 1012.0
20260507134514 52 39 0.9 2.6 0.00 0.30 0.22 76 1012.4
20260507133013 51 49 0.0 1.7 0.00 0.30 0.22 80 1012.2
20260507131517 52 349 0.0 1.7 0.00 0.30 0.22 85 1012.2
20260507130021 51 28 0.0 2.6 0.00 0.30 0.22 84 1012.1
20260507124511 50 26 0.0 1.7 0.00 0.30 0.22 88 1012.3
20260507123010 49 32 0.0 0.0 0.00 0.30 0.22 91 1012.1
20260507121507 49 32 0.0 0.0 0.00 0.30 0.22 92 1012.1
20260507120005 49 61 0.0 1.7 0.00 0.30 0.22 93 1012.2